FW7074 Weather Reports


time (UTC)temp
C
wind
direction
speed
KPH
gust
KPH
rain 1hr
cm
rain 24hr
cm
rain mn
cm
humidity
%
barometer
mb
20260506025203 18 182 0.0 1.6 0.00 0.00 0.00 86 1017.4
20260506025102 18 183 0.0 1.6 0.00 0.00 0.00 86 1017.4
20260506025002 18 184 0.0 1.6 0.00 0.00 0.00 86 1017.4
20260506024903 18 153 0.0 0.0 0.00 0.00 0.00 85 1017.3
20260506024803 18 153 0.0 0.0 0.00 0.00 0.00 85 1017.4
20260506024703 18 153 0.0 0.0 0.00 0.00 0.00 85 1017.4
20260506024603 18 153 0.0 0.0 0.00 0.00 0.00 85 1017.4
20260506024503 18 153 0.0 0.0 0.00 0.00 0.00 85 1017.4
20260506024403 18 153 0.0 0.0 0.00 0.00 0.00 85 1017.4
20260506024303 18 153 0.0 0.0 0.00 0.00 0.00 85 1017.5
20260506024103 18 153 0.0 0.0 0.00 0.00 0.00 84 1017.4
20260506023903 18 153 0.0 0.0 0.00 0.00 0.00 84 1017.4
20260506023704 18 153 0.0 0.0 0.00 0.00 0.00 84 1017.4
20260506023603 18 153 0.0 0.0 0.00 0.00 0.00 83 1017.4
20260506023503 18 153 0.0 0.0 0.00 0.00 0.00 83 1017.4
20260506023203 18 153 0.0 1.6 0.00 0.00 0.00 83 1017.4
20260506023103 18 153 0.0 1.6 0.00 0.00 0.00 82 1017.4
20260506023002 18 153 0.0 1.6 0.00 0.00 0.00 82 1017.4
20260506022903 18 153 0.0 1.6 0.00 0.00 0.00 82 1017.5
20260506022802 18 153 0.0 1.6 0.00 0.00 0.00 82 1017.4
20260506022702 18 153 0.0 1.6 0.00 0.00 0.00 82 1017.4
20260506022603 18 153 0.0 1.6 0.00 0.00 0.00 81 1017.5
20260506022502 18 153 0.0 1.6 0.00 0.00 0.00 81 1017.5
20260506022305 18 139 0.0 0.0 0.00 0.00 0.00 81 1017.6
20260506022203 18 139 0.0 0.0 0.00 0.00 0.00 81 1017.6
20260506022103 18 139 0.0 0.0 0.00 0.00 0.00 81 1017.5
20260506022003 18 139 0.0 1.6 0.00 0.00 0.00 80 1017.5
20260506021903 18 139 0.0 3.2 0.00 0.00 0.00 80 1017.4
20260506021802 18 139 0.0 3.2 0.00 0.00 0.00 80 1017.4
20260506021703 18 139 0.0 3.2 0.00 0.00 0.00 80 1017.4
20260506021603 18 139 0.0 3.2 0.00 0.00 0.00 80 1017.4
20260506021503 18 158 0.0 3.2 0.00 0.00 0.00 80 1017.4
20260506021403 18 158 0.0 3.2 0.00 0.00 0.00 80 1017.3
20260506021303 18 158 0.0 3.2 0.00 0.00 0.00 80 1017.3
20260506021103 18 138 0.0 3.2 0.00 0.00 0.00 80 1017.3
20260506021003 18 138 0.0 3.2 0.00 0.00 0.00 80 1017.3
20260506020903 18 138 0.0 3.2 0.00 0.00 0.00 80 1017.3
20260506020703 18 120 0.0 3.2 0.00 0.00 0.00 80 1017.3
20260506020603 18 131 0.0 3.2 0.00 0.00 0.00 80 1017.3
20260506020503 18 156 0.0 3.2 0.00 0.00 0.00 80 1017.3
20260506020303 18 146 0.0 1.6 0.00 0.00 0.00 80 1017.3
20260506020202 18 131 0.0 1.6 0.00 0.00 0.00 80 1017.2
20260506015802 18 167 0.0 1.6 0.00 0.00 0.00 80 1017.2
20260506015703 18 167 0.0 1.6 0.00 0.00 0.00 80 1017.2
20260506015602 18 146 0.0 1.6 0.00 0.00 0.00 80 1017.1
20260506015502 18 130 0.0 1.6 0.00 0.00 0.00 80 1017.1
20260506015305 19 130 0.0 1.6 0.00 0.00 0.00 79 1017.2
20260506015203 19 130 0.0 1.6 0.00 0.00 0.00 79 1017.1
20260506015104 19 158 0.0 3.2 0.00 0.00 0.00 79 1017.2
20260506015003 19 167 0.0 3.2 0.00 0.00 0.00 79 1017.0
20260506014903 19 188 0.0 3.2 0.00 0.00 0.00 79 1017.0
20260506014803 19 190 0.0 3.2 0.00 0.00 0.00 79 1017.2
20260506014703 19 189 0.0 3.2 0.00 0.00 0.00 79 1017.1
20260506014603 19 143 1.6 3.2 0.00 0.00 0.00 79 1017.2
20260506014502 19 143 1.6 3.2 0.00 0.00 0.00 79 1017.1
20260506014403 19 145 0.0 3.2 0.00 0.00 0.00 79 1017.1
20260506014303 19 141 0.0 3.2 0.00 0.00 0.00 80 1017.1
20260506014203 19 140 1.6 1.6 0.00 0.00 0.00 80 1017.2
20260506014103 19 136 0.0 4.8 0.00 0.00 0.00 80 1017.1
20260506014003 19 161 0.0 4.8 0.00 0.00 0.00 80 1017.1
20260506013902 19 141 0.0 4.8 0.00 0.00 0.00 80 1017.2
20260506013802 19 155 0.0 4.8 0.00 0.00 0.00 80 1017.2
20260506013703 19 137 0.0 4.8 0.00 0.00 0.00 80 1017.1
20260506013603 19 131 0.0 4.8 0.00 0.00 0.00 80 1017.1
20260506013503 19 141 1.6 4.8 0.00 0.00 0.00 80 1017.1
20260506013403 19 113 0.0 4.8 0.00 0.00 0.00 80 1017.1
20260506013303 19 113 0.0 4.8 0.00 0.00 0.00 80 1017.1
20260506013203 19 189 0.0 3.2 0.00 0.00 0.00 80 1017.1
20260506013103 19 146 0.0 3.2 0.00 0.00 0.00 80 1017.0
20260506013002 19 130 0.0 3.2 0.00 0.00 0.00 80 1017.1
20260506012903 19 162 0.0 3.2 0.00 0.00 0.00 80 1017.1
20260506012803 19 162 0.0 3.2 0.00 0.00 0.00 80 1017.1
20260506012702 19 101 1.6 3.2 0.00 0.00 0.00 80 1017.0
20260506012603 19 132 0.0 3.2 0.00 0.00 0.00 80 1017.1
20260506012503 19 174 0.0 3.2 0.00 0.00 0.00 79 1017.1
20260506012403 19 127 0.0 3.2 0.00 0.00 0.00 79 1017.0
20260506012307 19 120 0.0 3.2 0.00 0.00 0.00 79 1017.2
20260506012202 19 120 0.0 3.2 0.00 0.00 0.00 79 1017.2
20260506012103 19 172 0.0 3.2 0.00 0.00 0.00 79 1017.1
20260506012003 19 120 0.0 3.2 0.00 0.00 0.00 79 1017.1
20260506011802 19 152 0.0 3.2 0.00 0.00 0.00 79 1017.1
20260506011703 19 133 0.0 3.2 0.00 0.00 0.00 79 1017.1
20260506011403 19 183 0.0 4.8 0.00 0.00 0.00 79 1017.1
20260506011303 19 166 0.0 4.8 0.00 0.00 0.00 79 1017.1
20260506011202 19 128 0.0 4.8 0.00 0.00 0.00 79 1017.2
20260506010903 19 131 0.0 4.8 0.00 0.00 0.00 78 1017.1
20260506010703 19 131 0.0 6.4 0.00 0.00 0.00 78 1017.2
20260506010603 19 151 0.0 6.4 0.00 0.00 0.00 78 1017.2
20260506010503 19 116 3.2 6.4 0.00 0.00 0.00 78 1017.1
20260506010403 19 145 0.0 6.4 0.00 0.00 0.00 77 1017.2
20260506010303 19 143 0.0 6.4 0.00 0.00 0.00 77 1017.2
20260506010202 19 184 0.0 6.4 0.00 0.00 0.00 77 1017.1
20260506010105 19 159 0.0 6.4 0.00 0.00 0.00 77 1017.1
20260506010006 19 153 4.8 6.4 0.00 0.00 0.00 77 1017.1
20260506005903 20 196 0.0 3.2 0.00 0.00 0.00 77 1017.1
20260506005802 19 212 0.0 3.2 0.00 0.00 0.00 76 1017.1
20260506005503 20 180 0.0 3.2 0.00 0.00 0.00 76 1017.1
20260506005403 20 180 0.0 6.4 0.00 0.00 0.00 76 1017.1
20260506005305 20 181 0.0 6.4 0.00 0.00 0.00 76 1017.2
20260506005203 20 115 0.0 6.4 0.00 0.00 0.00 75 1017.1
20260506005003 20 140 0.0 6.4 0.00 0.00 0.00 75 1017.2
20260506004904 20 189 0.0 6.4 0.00 0.00 0.00 75 1017.1
20260506004803 20 106 0.0 6.4 0.00 0.00 0.00 75 1017.2
20260506004703 20 164 0.0 6.4 0.00 0.00 0.00 74 1017.1
20260506004603 20 168 0.0 6.4 0.00 0.00 0.00 74 1017.1
20260506004402 20 167 0.0 6.4 0.00 0.00 0.00 74 1017.1
20260506004303 20 136 0.0 6.4 0.00 0.00 0.00 74 1017.0
20260506004203 20 162 3.2 6.4 0.00 0.00 0.00 74 1017.1
20260506004102 20 156 1.6 4.8 0.00 0.00 0.00 74 1017.1
20260506003903 20 143 0.0 4.8 0.00 0.00 0.00 73 1017.1
20260506003703 20 119 0.0 4.8 0.00 0.00 0.00 73 1017.1
20260506003603 20 137 0.0 3.2 0.00 0.00 0.00 73 1017.1
20260506003503 20 139 0.0 3.2 0.00 0.00 0.00 73 1017.1
20260506003403 20 160 0.0 3.2 0.00 0.00 0.00 73 1017.1
20260506003303 20 150 0.0 4.8 0.00 0.00 0.00 73 1017.1
20260506003202 20 174 1.6 4.8 0.00 0.00 0.00 73 1017.1
20260506003103 20 126 0.0 4.8 0.00 0.00 0.00 73 1017.1
20260506003002 20 171 1.6 4.8 0.00 0.00 0.00 73 1017.0
20260506002902 20 146 0.0 4.8 0.00 0.00 0.00 73 1017.0
20260506002802 20 138 1.6 4.8 0.00 0.00 0.00 73 1017.1
20260506002603 20 191 1.6 4.8 0.00 0.00 0.00 73 1017.0
20260506002503 20 120 3.2 4.8 0.00 0.00 0.00 73 1017.1
20260506002403 20 196 3.2 4.8 0.00 0.00 0.00 73 1017.0
20260506002305 20 178 0.0 4.8 0.00 0.00 0.00 73 1017.1
20260506002202 20 189 0.0 6.4 0.00 0.00 0.00 73 1016.9
20260506002103 20 172 0.0 6.4 0.00 0.00 0.00 73 1016.9
20260506002003 20 174 0.0 6.4 0.00 0.00 0.00 73 1017.0
20260506001903 20 174 0.0 6.4 0.00 0.00 0.00 73 1017.0
20260506001802 20 108 0.0 6.4 0.00 0.00 0.00 73 1017.0
20260506001602 20 212 0.0 6.4 0.00 0.00 0.00 74 1016.9
20260506001503 20 176 0.0 6.4 0.00 0.00 0.00 74 1016.9
20260506001402 20 165 4.8 6.4 0.00 0.00 0.00 74 1016.9
20260506001203 20 139 1.6 6.4 0.00 0.00 0.00 74 1017.0
20260506001103 20 172 1.6 4.8 0.00 0.00 0.00 75 1016.9
20260506001003 20 91 0.0 4.8 0.00 0.00 0.00 75 1016.9
20260506000903 20 157 0.0 4.8 0.00 0.00 0.00 75 1016.9
20260506000702 20 150 1.6 3.2 0.00 0.00 0.00 75 1016.9
20260506000502 20 182 0.0 6.4 0.00 0.00 0.00 75 1016.9
20260506000402 20 203 0.0 6.4 0.00 0.00 0.00 75 1016.9
20260506000204 20 155 0.0 6.4 0.00 0.00 0.00 74 1016.9
20260506000104 20 181 0.0 8.0 0.00 0.00 0.00 74 1016.9
20260506000005 20 165 0.0 8.0 0.00 0.00 0.00 74 1016.9
20260505235802 20 160 0.0 8.0 0.00 0.00 0.00 74 1016.9
20260505235703 20 176 0.0 8.0 0.00 0.00 0.00 73 1017.0
20260505235602 20 138 1.6 8.0 0.00 0.00 0.00 73 1016.9
20260505235503 20 197 0.0 8.0 0.00 0.00 0.00 73 1016.9
20260505235402 20 200 0.0 9.7 0.00 0.00 0.00 73 1016.9
20260505235305 20 236 1.6 9.7 0.00 0.00 0.00 73 1017.0
20260505235203 20 75 4.8 9.7 0.00 0.00 0.00 73 1017.0
20260505235103 20 99 0.0 9.7 0.00 0.00 0.00 72 1016.9
20260505235003 20 179 4.8 9.7 0.00 0.00 0.00 72 1017.0
20260505234903 20 174 0.0 9.7 0.00 0.00 0.00 72 1016.9
20260505234803 20 128 1.6 9.7 0.00 0.00 0.00 72 1017.0
20260505234702 20 158 0.0 9.7 0.00 0.00 0.00 72 1016.9
20260505234603 20 171 0.0 9.7 0.00 0.00 0.00 72 1016.8
20260505234503 20 257 0.0 9.7 0.00 0.00 0.00 72 1016.9
20260505234402 20 174 0.0 9.7 0.00 0.00 0.00 72 1016.9
20260505234203 20 215 1.6 9.7 0.00 0.00 0.00 72 1017.0
20260505234102 20 33 1.6 9.7 0.00 0.00 0.00 72 1016.9
20260505234002 20 148 1.6 16.1 0.00 0.00 0.00 72 1016.9
20260505233903 21 207 1.6 16.1 0.00 0.00 0.00 71 1016.9
20260505233802 21 112 1.6 16.1 0.00 0.00 0.00 71 1016.9
20260505233703 21 177 0.0 16.1 0.00 0.00 0.00 71 1017.0
20260505233603 21 167 1.6 16.1 0.00 0.00 0.00 71 1017.0
20260505233502 21 188 1.6 16.1 0.00 0.00 0.00 71 1016.9
20260505233303 21 72 3.2 16.1 0.00 0.00 0.00 70 1016.9
20260505233003 21 224 0.0 11.3 0.00 0.00 0.00 70 1016.8
20260505232903 21 200 0.0 11.3 0.00 0.00 0.00 70 1016.9
20260505232803 21 111 4.8 11.3 0.00 0.00 0.00 69 1016.8
20260505232603 21 134 1.6 11.3 0.00 0.00 0.00 69 1016.8
20260505232503 21 193 3.2 11.3 0.00 0.00 0.00 69 1016.9
20260505232403 21 144 1.6 11.3 0.00 0.00 0.00 69 1016.9
20260505232305 21 214 1.6 11.3 0.00 0.00 0.00 69 1016.9
20260505232202 21 165 8.0 11.3 0.00 0.00 0.00 68 1016.9
20260505232102 21 160 1.6 11.3 0.00 0.00 0.00 68 1017.0
20260505232003 21 199 3.2 11.3 0.00 0.00 0.00 68 1016.9
20260505231902 21 157 1.6 11.3 0.00 0.00 0.00 68 1017.0
20260505231802 21 144 1.6 11.3 0.00 0.00 0.00 68 1016.9
20260505231703 21 205 0.0 11.3 0.00 0.00 0.00 68 1016.9
20260505231602 21 192 0.0 11.3 0.00 0.00 0.00 68 1017.0
20260505231503 21 191 0.0 11.3 0.00 0.00 0.00 67 1017.0
20260505231403 21 212 3.2 11.3 0.00 0.00 0.00 67 1017.0
20260505231203 21 248 1.6 11.3 0.00 0.00 0.00 66 1016.9
20260505231103 21 146 6.4 11.3 0.00 0.00 0.00 66 1017.0
20260505230903 21 188 4.8 11.3 0.00 0.00 0.00 66 1017.0
20260505230802 21 179 3.2 11.3 0.00 0.00 0.00 66 1017.0
20260505230703 22 158 3.2 9.7 0.00 0.00 0.00 66 1017.0
20260505230603 22 172 1.6 9.7 0.00 0.00 0.00 66 1017.0
20260505230503 22 217 0.0 11.3 0.00 0.00 0.00 66 1017.1
20260505230402 22 229 8.0 11.3 0.00 0.00 0.00 66 1017.1
20260505230304 22 152 1.6 11.3 0.00 0.00 0.00 66 1017.1
20260505230203 22 146 0.0 11.3 0.00 0.00 0.00 66 1017.1
20260505230007 22 181 0.0 11.3 0.00 0.00 0.00 65 1017.1
20260505225903 22 165 9.7 12.9 0.00 0.00 0.00 65 1017.1
20260505225803 22 225 4.8 12.9 0.00 0.00 0.00 65 1017.1
20260505225602 22 152 8.0 12.9 0.00 0.00 0.00 65 1017.1
20260505225503 22 203 1.6 12.9 0.00 0.00 0.00 65 1017.1
20260505225403 22 231 1.6 12.9 0.00 0.00 0.00 65 1017.1
20260505225305 22 158 6.4 12.9 0.00 0.00 0.00 65 1017.1
20260505225203 22 32 11.3 12.9 0.00 0.00 0.00 65 1017.1
20260505225102 22 162 4.8 12.9 0.00 0.00 0.00 65 1017.0
20260505225003 22 163 4.8 11.3 0.00 0.00 0.00 65 1017.0
20260505224903 22 172 6.4 11.3 0.00 0.00 0.00 64 1017.0
20260505224802 22 195 6.4 11.3 0.00 0.00 0.00 64 1017.0
20260505224703 22 197 4.8 9.7 0.00 0.00 0.00 65 1017.0
20260505224503 22 184 1.6 9.7 0.00 0.00 0.00 65 1017.0
20260505224403 22 125 4.8 11.3 0.00 0.00 0.00 65 1017.0
20260505224303 22 214 3.2 11.3 0.00 0.00 0.00 65 1017.0
20260505224203 22 174 1.6 11.3 0.00 0.00 0.00 65 1017.1
20260505224102 22 111 3.2 11.3 0.00 0.00 0.00 65 1017.1
20260505224002 22 217 4.8 11.3 0.00 0.00 0.00 65 1017.1
20260505223903 22 153 1.6 14.5 0.00 0.00 0.00 66 1017.2
20260505223802 22 212 0.0 14.5 0.00 0.00 0.00 66 1017.1
20260505223603 21 233 3.2 14.5 0.00 0.00 0.00 66 1017.1
20260505223502 22 317 1.6 14.5 0.00 0.00 0.00 66 1017.1
20260505223403 22 146 3.2 14.5 0.00 0.00 0.00 66 1017.1
20260505223303 22 154 0.0 14.5 0.00 0.00 0.00 65 1017.1
20260505223202 22 123 0.0 14.5 0.00 0.00 0.00 65 1017.1
20260505223103 22 172 9.7 14.5 0.00 0.00 0.00 65 1017.1
20260505223003 22 197 3.2 12.9 0.00 0.00 0.00 66 1017.1
20260505222803 22 172 1.6 12.9 0.00 0.00 0.00 66 1017.1
20260505222702 22 108 0.0 12.9 0.00 0.00 0.00 66 1017.3
20260505222603 22 122 6.4 12.9 0.00 0.00 0.00 65 1017.1
20260505222503 22 191 3.2 12.9 0.00 0.00 0.00 64 1017.1
20260505222402 22 249 4.8 12.9 0.00 0.00 0.00 64 1017.2
20260505222305 22 185 3.2 9.7 0.00 0.00 0.00 65 1017.3
20260505222202 22 195 1.6 9.7 0.00 0.00 0.00 64 1017.2
20260505222102 22 149 4.8 9.7 0.00 0.00 0.00 64 1017.3
20260505222002 22 148 1.6 14.5 0.00 0.00 0.00 64 1017.3
20260505221803 22 192 1.6 14.5 0.00 0.00 0.00 63 1017.4
20260505221702 22 190 0.0 14.5 0.00 0.00 0.00 63 1017.3
20260505221602 22 99 3.2 14.5 0.00 0.00 0.00 63 1017.4
20260505221503 22 165 9.7 14.5 0.00 0.00 0.00 63 1017.3
20260505221402 22 157 6.4 14.5 0.00 0.00 0.00 63 1017.3
20260505221303 22 124 0.0 14.5 0.00 0.00 0.00 63 1017.3
20260505221203 22 158 6.4 16.1 0.00 0.00 0.00 63 1017.4
20260505221103 22 100 3.2 16.1 0.00 0.00 0.00 63 1017.4
20260505221003 22 214 3.2 16.1 0.00 0.00 0.00 62 1017.2
20260505220903 22 137 12.9 16.1 0.00 0.00 0.00 62 1017.2
20260505220802 22 127 3.2 16.1 0.00 0.00 0.00 63 1017.1
20260505220703 22 186 1.6 16.1 0.00 0.00 0.00 63 1017.2
20260505220602 22 178 3.2 16.1 0.00 0.00 0.00 63 1017.1
20260505220503 22 171 4.8 16.1 0.00 0.00 0.00 62 1017.1
20260505220403 22 193 4.8 16.1 0.00 0.00 0.00 62 1017.1
20260505220303 22 172 3.2 12.9 0.00 0.00 0.00 62 1017.1
20260505220203 22 214 6.4 12.9 0.00 0.00 0.00 62 1017.1
20260505215902 22 105 6.4 14.5 0.00 0.00 0.00 63 1017.1
20260505215802 22 84 3.2 14.5 0.00 0.00 0.00 63 1017.0
20260505215702 22 210 3.2 14.5 0.00 0.00 0.00 64 1017.0
20260505215604 22 117 1.6 14.5 0.00 0.00 0.00 63 1017.0
20260505215502 22 74 8.0 14.5 0.00 0.00 0.00 64 1017.0
20260505215402 22 182 3.2 14.5 0.00 0.00 0.00 63 1017.0
20260505215305 22 86 6.4 14.5 0.00 0.00 0.00 63 1017.0
20260505215102 22 81 8.0 12.9 0.00 0.00 0.00 64 1017.0
20260505215005 22 136 4.8 9.7 0.00 0.00 0.00 64 1017.1
20260505214902 22 241 1.6 11.3 0.00 0.00 0.00 64 1017.1
20260505214802 22 216 0.0 11.3 0.00 0.00 0.00 64 1017.0
20260505214502 22 196 3.2 11.3 0.00 0.00 0.00 65 1017.0
20260505214403 22 184 4.8 11.3 0.00 0.00 0.00 64 1017.0
20260505214303 22 207 0.0 11.3 0.00 0.00 0.00 64 1017.0
20260505214203 22 172 3.2 11.3 0.00 0.00 0.00 64 1017.0
20260505214103 22 102 6.4 11.3 0.00 0.00 0.00 65 1017.0
20260505214003 23 166 6.4 14.5 0.00 0.00 0.00 65 1017.1
20260505213902 23 146 1.6 14.5 0.00 0.00 0.00 65 1017.0
20260505213803 23 205 3.2 14.5 0.00 0.00 0.00 65 1017.0
20260505213703 23 148 1.6 14.5 0.00 0.00 0.00 65 1016.9
20260505213602 23 245 4.8 14.5 0.00 0.00 0.00 65 1016.9
20260505213502 23 187 3.2 14.5 0.00 0.00 0.00 65 1016.9
20260505213403 23 94 0.0 14.5 0.00 0.00 0.00 65 1016.9
20260505213302 23 352 0.0 14.5 0.00 0.00 0.00 65 1016.9
20260505213202 23 139 4.8 14.5 0.00 0.00 0.00 64 1017.0
20260505213102 23 177 4.8 14.5 0.00 0.00 0.00 64 1016.9
20260505213002 23 148 8.0 14.5 0.00 0.00 0.00 65 1016.9
20260505212903 23 200 1.6 14.5 0.00 0.00 0.00 65 1017.0
20260505212702 23 230 4.8 14.5 0.00 0.00 0.00 66 1017.1
20260505212602 23 209 3.2 14.5 0.00 0.00 0.00 65 1017.1
20260505212403 23 140 3.2 12.9 0.00 0.00 0.00 65 1017.2
20260505212305 23 50 3.2 12.9 0.00 0.00 0.00 65 1017.2
20260505212202 23 152 4.8 12.9 0.00 0.00 0.00 66 1017.3
20260505212102 23 154 0.0 12.9 0.00 0.00 0.00 65 1017.2
20260505212003 23 213 0.0 12.9 0.00 0.00 0.00 65 1017.1
20260505211802 23 169 3.2 12.9 0.00 0.00 0.00 64 1017.1
20260505211702 23 217 3.2 12.9 0.00 0.00 0.00 64 1017.1
20260505211503 23 269 1.6 12.9 0.00 0.00 0.00 63 1017.1
20260505211402 23 162 9.7 12.9 0.00 0.00 0.00 63 1017.1
20260505211302 23 146 4.8 12.9 0.00 0.00 0.00 64 1017.1
20260505211202 23 110 6.4 12.9 0.00 0.00 0.00 65 1017.0
20260505211102 23 244 0.0 12.9 0.00 0.00 0.00 64 1017.1
20260505211003 23 121 1.6 12.9 0.00 0.00 0.00 64 1017.1
20260505210902 23 159 1.6 11.3 0.00 0.00 0.00 65 1017.2
20260505210704 23 229 0.0 11.3 0.00 0.00 0.00 64 1017.3
20260505210603 23 148 3.2 11.3 0.00 0.00 0.00 64 1017.3
20260505210502 23 179 6.4 11.3 0.00 0.00 0.00 64 1017.3
20260505210402 23 350 0.0 11.3 0.00 0.00 0.00 63 1017.3
20260505210302 23 98 4.8 11.3 0.00 0.00 0.00 63 1017.2
20260505210202 23 126 3.2 9.7 0.00 0.00 0.00 63 1017.3
20260505210006 24 211 1.6 8.0 0.00 0.00 0.00 63 1017.2
20260505205902 24 128 8.0 8.0 0.00 0.00 0.00 63 1017.1
20260505205803 24 211 3.2 9.7 0.00 0.00 0.00 63 1017.0
20260505205702 24 234 0.0 9.7 0.00 0.00 0.00 63 1017.0
20260505205603 24 188 3.2 9.7 0.00 0.00 0.00 62 1016.9
20260505205402 24 174 1.6 11.3 0.00 0.00 0.00 62 1016.9
20260505205305 24 72 3.2 12.9 0.00 0.00 0.00 62 1016.8
20260505205102 24 219 0.0 12.9 0.00 0.00 0.00 62 1016.8
20260505205002 24 207 6.4 12.9 0.00 0.00 0.00 62 1016.9
20260505204902 24 197 0.0 12.9 0.00 0.00 0.00 62 1016.9
20260505204602 24 79 6.4 12.9 0.00 0.00 0.00 61 1016.8
20260505204502 24 155 3.2 12.9 0.00 0.00 0.00 61 1017.0
20260505204405 24 142 4.8 9.7 0.00 0.00 0.00 61 1016.9
20260505204302 24 82 0.0 9.7 0.00 0.00 0.00 60 1016.9
20260505204203 24 233 3.2 9.7 0.00 0.00 0.00 60 1017.0
20260505204104 24 199 3.2 6.4 0.00 0.00 0.00 61 1017.0
20260505204002 24 226 0.0 6.4 0.00 0.00 0.00 60 1016.9
20260505203903 24 168 6.4 12.9 0.00 0.00 0.00 61 1016.9
20260505203802 24 212 0.0 12.9 0.00 0.00 0.00 61 1016.9
20260505203702 24 142 1.6 12.9 0.00 0.00 0.00 61 1016.9
20260505203602 24 219 0.0 12.9 0.00 0.00 0.00 61 1016.9
20260505203503 24 232 0.0 12.9 0.00 0.00 0.00 61 1016.8
20260505203103 24 209 1.6 9.7 0.00 0.00 0.00 58 1016.8
20260505203002 24 229 0.0 9.7 0.00 0.00 0.00 58 1016.8
20260505202903 24 271 3.2 9.7 0.00 0.00 0.00 57 1016.8
20260505202602 24 223 3.2 9.7 0.00 0.00 0.00 57 1016.8
20260505202503 24 197 0.0 9.7 0.00 0.00 0.00 56 1016.7
20260505202402 24 128 6.4 9.7 0.00 0.00 0.00 57 1016.8
20260505202306 24 176 0.0 8.0 0.00 0.00 0.00 57 1016.8
20260505202203 24 196 4.8 8.0 0.00 0.00 0.00 57 1016.8
20260505202102 24 91 0.0 8.0 0.00 0.00 0.00 57 1016.7
20260505202003 24 224 1.6 8.0 0.00 0.00 0.00 57 1016.7
20260505201902 24 120 1.6 8.0 0.00 0.00 0.00 57 1016.7
20260505201803 24 126 0.0 8.0 0.00 0.00 0.00 57 1016.7
20260505201602 24 62 3.2 8.0 0.00 0.00 0.00 56 1016.7
20260505201503 24 209 1.6 8.0 0.00 0.00 0.00 56 1016.8
20260505201302 24 123 0.0 8.0 0.00 0.00 0.00 57 1016.8
20260505201202 24 214 1.6 8.0 0.00 0.00 0.00 57 1016.8
20260505201102 24 216 4.8 8.0 0.00 0.00 0.00 56 1016.8
20260505201003 24 146 4.8 8.0 0.00 0.00 0.00 58 1016.8
20260505200904 24 212 0.0 8.0 0.00 0.00 0.00 57 1016.8
20260505200802 25 172 0.0 8.0 0.00 0.00 0.00 57 1016.8
20260505200702 25 112 0.0 8.0 0.00 0.00 0.00 57 1016.8
20260505200403 25 129 4.8 8.0 0.00 0.00 0.00 57 1016.9
20260505200302 25 205 0.0 8.0 0.00 0.00 0.00 57 1017.0
20260505200202 25 278 0.0 14.5 0.00 0.00 0.00 56 1017.0
20260505200006 25 206 3.2 14.5 0.00 0.00 0.00 56 1016.9
20260505195903 25 203 0.0 14.5 0.00 0.00 0.00 56 1017.0
20260505195802 25 206 0.0 14.5 0.00 0.00 0.00 55 1017.0
20260505195702 25 149 0.0 14.5 0.00 0.00 0.00 56 1017.1
20260505195603 25 174 1.6 14.5 0.00 0.00 0.00 56 1017.1
20260505195502 25 183 1.6 14.5 0.00 0.00 0.00 56 1017.1
20260505195404 25 246 3.2 14.5 0.00 0.00 0.00 55 1017.1
20260505195306 25 127 0.0 12.9 0.00 0.00 0.00 57 1017.1
20260505195202 25 220 0.0 12.9 0.00 0.00 0.00 57 1017.3
20260505195102 25 174 1.6 12.9 0.00 0.00 0.00 58 1017.3
20260505195002 25 246 3.2 12.9 0.00 0.00 0.00 56 1017.3
20260505194902 25 148 4.8 12.9 0.00 0.00 0.00 57 1017.3
20260505194803 25 196 3.2 12.9 0.00 0.00 0.00 57 1017.4
20260505194703 25 158 0.0 8.0 0.00 0.00 0.00 59 1017.4
20260505194502 24 221 4.8 8.0 0.00 0.00 0.00 57 1017.5
20260505194402 24 149 1.6 8.0 0.00 0.00 0.00 58 1017.5
20260505194303 24 217 0.0 8.0 0.00 0.00 0.00 56 1017.5
20260505194202 24 222 0.0 8.0 0.00 0.00 0.00 56 1017.5
20260505194102 24 256 0.0 8.0 0.00 0.00 0.00 55 1017.6
20260505194003 24 191 0.0 8.0 0.00 0.00 0.00 54 1017.6
20260505193902 24 153 8.0 8.0 0.00 0.00 0.00 57 1017.6
20260505193802 24 210 1.6 6.4 0.00 0.00 0.00 56 1017.6
20260505193702 24 129 1.6 6.4 0.00 0.00 0.00 57 1017.6
20260505193503 24 41 0.0 6.4 0.00 0.00 0.00 56 1017.6
20260505193303 25 210 0.0 6.4 0.00 0.00 0.00 57 1017.6
20260505193203 25 35 3.2 6.4 0.00 0.00 0.00 57 1017.6
20260505193102 25 162 1.6 11.3 0.00 0.00 0.00 55 1017.7
20260505193002 25 169 0.0 11.3 0.00 0.00 0.00 58 1017.7
20260505192902 25 131 0.0 11.3 0.00 0.00 0.00 56 1017.6
20260505192802 25 93 0.0 11.3 0.00 0.00 0.00 55 1017.7
20260505192702 25 231 4.8 11.3 0.00 0.00 0.00 57 1017.6
20260505192603 25 221 0.0 11.3 0.00 0.00 0.00 56 1017.7
20260505192505 25 258 0.0 11.3 0.00 0.00 0.00 56 1017.7
20260505192402 25 262 0.0 11.3 0.00 0.00 0.00 56 1017.7
20260505192305 25 158 6.4 11.3 0.00 0.00 0.00 55 1017.7
20260505192202 25 125 4.8 11.3 0.00 0.00 0.00 57 1017.7
20260505192103 25 193 3.2 12.9 0.00 0.00 0.00 58 1017.6
20260505192002 25 175 0.0 12.9 0.00 0.00 0.00 58 1017.7
20260505191902 25 114 1.6 12.9 0.00 0.00 0.00 57 1017.8
20260505191802 25 54 0.0 12.9 0.00 0.00 0.00 56 1017.7
20260505191702 25 316 0.0 12.9 0.00 0.00 0.00 56 1017.8
20260505191506 25 189 4.8 12.9 0.00 0.00 0.00 55 1017.7
20260505191403 25 40 6.4 12.9 0.00 0.00 0.00 56 1017.7
20260505191303 25 132 1.6 12.9 0.00 0.00 0.00 56 1017.7
20260505191104 25 228 4.8 12.9 0.00 0.00 0.00 55 1017.7
20260505191002 25 133 6.4 12.9 0.00 0.00 0.00 55 1017.7
20260505190902 25 14 1.6 12.9 0.00 0.00 0.00 56 1017.8
20260505190802 25 247 1.6 12.9 0.00 0.00 0.00 56 1017.7
20260505190702 25 180 1.6 12.9 0.00 0.00 0.00 55 1017.9
20260505190503 25 248 3.2 12.9 0.00 0.00 0.00 55 1017.8
20260505190402 25 75 3.2 12.9 0.00 0.00 0.00 55 1017.8
20260505190302 25 170 1.6 12.9 0.00 0.00 0.00 55 1017.8
20260505190202 25 153 11.3 12.9 0.00 0.00 0.00 53 1017.8
20260505190005 25 152 9.7 9.7 0.00 0.00 0.00 56 1017.7
20260505185902 25 188 0.0 8.0 0.00 0.00 0.00 55 1017.8
20260505185802 25 204 1.6 8.0 0.00 0.00 0.00 57 1017.7
20260505185703 25 244 0.0 8.0 0.00 0.00 0.00 55 1017.7
20260505185502 25 252 0.0 8.0 0.00 0.00 0.00 57 1017.7
20260505185402 25 149 4.8 8.0 0.00 0.00 0.00 55 1017.6
20260505185203 25 243 3.2 11.3 0.00 0.00 0.00 56 1017.7
20260505185103 25 250 0.0 11.3 0.00 0.00 0.00 57 1017.6
20260505184903 25 131 3.2 11.3 0.00 0.00 0.00 56 1017.7
20260505184802 25 191 4.8 11.3 0.00 0.00 0.00 55 1017.7
20260505184703 25 230 0.0 11.3 0.00 0.00 0.00 55 1017.6
20260505184602 25 224 3.2 11.3 0.00 0.00 0.00 55 1017.7
20260505184502 25 127 1.6 11.3 0.00 0.00 0.00 55 1017.7
20260505184402 25 211 4.8 8.0 0.00 0.00 0.00 55 1017.7
20260505184303 25 146 0.0 8.0 0.00 0.00 0.00 58 1017.8
20260505184202 25 245 0.0 8.0 0.00 0.00 0.00 56 1017.8
20260505184102 25 205 1.6 8.0 0.00 0.00 0.00 56 1017.9
20260505184002 25 222 3.2 8.0 0.00 0.00 0.00 56 1017.8
20260505183902 25 231 1.6 8.0 0.00 0.00 0.00 56 1017.7
20260505183702 25 181 4.8 9.7 0.00 0.00 0.00 57 1017.9
20260505183602 25 166 0.0 9.7 0.00 0.00 0.00 59 1018.0
20260505183402 25 91 0.0 9.7 0.00 0.00 0.00 56 1017.9
20260505183303 25 172 0.0 9.7 0.00 0.00 0.00 57 1017.9
20260505183202 25 242 0.0 11.3 0.00 0.00 0.00 57 1017.9
20260505183003 25 139 0.0 11.3 0.00 0.00 0.00 56 1018.0
20260505182902 25 248 1.6 11.3 0.00 0.00 0.00 56 1018.0
20260505182702 25 158 0.0 11.3 0.00 0.00 0.00 55 1018.0
20260505182602 25 68 1.6 11.3 0.00 0.00 0.00 55 1018.1
20260505182403 25 231 3.2 12.9 0.00 0.00 0.00 55 1018.2
20260505182305 25 135 3.2 12.9 0.00 0.00 0.00 57 1018.1
20260505182202 25 37 0.0 12.9 0.00 0.00 0.00 56 1018.2
20260505182102 25 157 0.0 12.9 0.00 0.00 0.00 56 1018.1
20260505182002 25 32 0.0 12.9 0.00 0.00 0.00 58 1018.1
20260505181902 25 88 1.6 12.9 0.00 0.00 0.00 57 1018.1
20260505181802 25 255 0.0 12.9 0.00 0.00 0.00 57 1018.1
20260505181702 25 250 0.0 12.9 0.00 0.00 0.00 56 1018.1
20260505181604 25 255 6.4 11.3 0.00 0.00 0.00 56 1018.1
20260505181502 25 256 0.0 9.7 0.00 0.00 0.00 59 1018.1
20260505181403 25 357 1.6 9.7 0.00 0.00 0.00 58 1018.1
20260505181302 25 293 0.0 9.7 0.00 0.00 0.00 54 1018.1
20260505181203 25 242 0.0 9.7 0.00 0.00 0.00 55 1018.1
20260505181102 25 244 0.0 9.7 0.00 0.00 0.00 55 1018.0
20260505181003 25 101 6.4 9.7 0.00 0.00 0.00 56 1018.1
20260505180902 25 231 1.6 9.7 0.00 0.00 0.00 56 1018.1
20260505180803 25 60 0.0 9.7 0.00 0.00 0.00 57 1018.1
20260505180702 25 56 1.6 9.7 0.00 0.00 0.00 57 1018.1
20260505180602 25 238 1.6 14.5 0.00 0.00 0.00 58 1018.2
20260505180502 25 224 1.6 14.5 0.00 0.00 0.00 57 1018.1
20260505180402 25 201 0.0 14.5 0.00 0.00 0.00 56 1018.1
20260505180303 25 73 6.4 14.5 0.00 0.00 0.00 57 1018.1
20260505180005 25 266 0.0 14.5 0.00 0.00 0.00 56 1018.0
20260505175802 25 146 9.7 14.5 0.00 0.00 0.00 56 1018.1
20260505175702 25 117 9.7 12.9 0.00 0.00 0.00 55 1018.1
20260505175605 25 157 8.0 12.9 0.00 0.00 0.00 56 1018.2
20260505175502 25 120 9.7 12.9 0.00 0.00 0.00 56 1018.2
20260505175403 25 111 9.7 9.7 0.00 0.00 0.00 58 1018.2
20260505175305 25 57 0.0 8.0 0.00 0.00 0.00 57 1018.2
20260505175202 25 230 0.0 8.0 0.00 0.00 0.00 56 1018.2
20260505175002 25 270 0.0 8.0 0.00 0.00 0.00 56 1018.1
20260505174903 25 37 3.2 8.0 0.00 0.00 0.00 56 1018.2
20260505174803 25 345 0.0 6.4 0.00 0.00 0.00 55 1018.1
20260505174702 25 103 0.0 4.8 0.00 0.00 0.00 55 1018.2
20260505174603 25 206 0.0 6.4 0.00 0.00 0.00 55 1018.1
20260505174402 25 15 0.0 14.5 0.00 0.00 0.00 57 1018.2
20260505174202 25 141 1.6 14.5 0.00 0.00 0.00 56 1018.1
20260505174102 25 50 0.0 14.5 0.00 0.00 0.00 57 1018.2
20260505174002 25 119 0.0 14.5 0.00 0.00 0.00 56 1018.2
20260505173902 25 129 4.8 14.5 0.00 0.00 0.00 56 1018.2
20260505173802 25 264 1.6 14.5 0.00 0.00 0.00 55 1018.2
20260505173702 25 213 3.2 14.5 0.00 0.00 0.00 54 1018.2
20260505173602 25 150 11.3 11.3 0.00 0.00 0.00 57 1018.2
20260505173502 25 233 0.0 6.4 0.00 0.00 0.00 58 1018.3
20260505173403 25 174 1.6 6.4 0.00 0.00 0.00 57 1018.3
20260505173302 25 79 0.0 6.4 0.00 0.00 0.00 58 1018.3
20260505173202 25 280 0.0 6.4 0.00 0.00 0.00 58 1018.3
20260505173102 25 115 0.0 6.4 0.00 0.00 0.00 59 1018.4
20260505173002 25 285 0.0 6.4 0.00 0.00 0.00 57 1018.3
20260505172703 25 57 0.0 6.4 0.00 0.00 0.00 56 1018.4
20260505172605 25 148 0.0 6.4 0.00 0.00 0.00 56 1018.3
20260505172403 25 225 0.0 6.4 0.00 0.00 0.00 57 1018.3
20260505172305 25 56 3.2 6.4 0.00 0.00 0.00 56 1018.3
20260505172202 25 82 1.6 6.4 0.00 0.00 0.00 56 1018.3
20260505172103 25 209 0.0 6.4 0.00 0.00 0.00 56 1018.3
20260505172002 25 221 0.0 6.4 0.00 0.00 0.00 56 1018.4
20260505171902 25 221 0.0 6.4 0.00 0.00 0.00 56 1018.4
20260505171803 25 116 1.6 8.0 0.00 0.00 0.00 55 1018.4
20260505171602 25 185 0.0 8.0 0.00 0.00 0.00 55 1018.4
20260505171503 25 286 0.0 8.0 0.00 0.00 0.00 55 1018.4
20260505171402 25 282 0.0 8.0 0.00 0.00 0.00 54 1018.5
20260505171203 25 158 0.0 8.0 0.00 0.00 0.00 56 1018.3
20260505171003 25 170 3.2 8.0 0.00 0.00 0.00 55 1018.4
20260505170902 25 53 0.0 6.4 0.00 0.00 0.00 56 1018.4
20260505170802 25 30 0.0 6.4 0.00 0.00 0.00 56 1018.4
20260505170702 25 105 0.0 8.0 0.00 0.00 0.00 54 1018.5
20260505170603 25 56 1.6 8.0 0.00 0.00 0.00 55 1018.4
20260505170502 25 321 1.6 8.0 0.00 0.00 0.00 56 1018.5
20260505170403 25 30 0.0 8.0 0.00 0.00 0.00 57 1018.5
20260505170202 25 231 0.0 8.0 0.00 0.00 0.00 57 1018.5
20260505170005 25 318 3.2 8.0 0.00 0.00 0.00 58 1018.5
20260505165902 25 253 3.2 8.0 0.00 0.00 0.00 55 1018.5
20260505165803 25 131 3.2 9.7 0.00 0.00 0.00 55 1018.5
20260505165602 25 214 3.2 12.9 0.00 0.00 0.00 55 1018.5
20260505165503 25 191 0.0 12.9 0.00 0.00 0.00 54 1018.5
20260505165402 25 200 4.8 12.9 0.00 0.00 0.00 55 1018.5
20260505164802 25 21 3.2 6.4 0.00 0.00 0.00 57 1018.5
20260505164702 25 83 0.0 6.4 0.00 0.00 0.00 57 1018.6
20260505164603 25 231 0.0 6.4 0.00 0.00 0.00 55 1018.6
20260505164502 25 200 0.0 6.4 0.00 0.00 0.00 57 1018.6
20260505164402 25 169 0.0 6.4 0.00 0.00 0.00 57 1018.6
20260505164202 25 85 3.2 4.8 0.00 0.00 0.00 55 1018.6
20260505164002 25 44 0.0 4.8 0.00 0.00 0.00 56 1018.6
20260505163702 25 82 0.0 8.0 0.00 0.00 0.00 55 1018.6
20260505163502 25 227 0.0 8.0 0.00 0.00 0.00 56 1018.6
20260505163302 25 246 0.0 8.0 0.00 0.00 0.00 57 1018.6
20260505163204 25 274 3.2 8.0 0.00 0.00 0.00 59 1018.6
20260505163102 25 226 0.0 8.0 0.00 0.00 0.00 59 1018.7
20260505163002 25 147 0.0 8.0 0.00 0.00 0.00 56 1018.7
20260505162903 25 203 0.0 8.0 0.00 0.00 0.00 55 1018.7
20260505162802 25 195 3.2 8.0 0.00 0.00 0.00 57 1018.7
20260505162702 25 58 0.0 8.0 0.00 0.00 0.00 55 1018.8
20260505162602 25 61 1.6 8.0 0.00 0.00 0.00 56 1018.7
20260505162305 25 98 3.2 8.0 0.00 0.00 0.00 56 1018.8
20260505162202 25 251 0.0 8.0 0.00 0.00 0.00 58 1018.8
20260505162102 25 248 0.0 8.0 0.00 0.00 0.00 60 1018.8
20260505162003 25 246 0.0 8.0 0.00 0.00 0.00 59 1018.8
20260505161902 25 61 0.0 8.0 0.00 0.00 0.00 57 1018.8
20260505161805 25 61 0.0 8.0 0.00 0.00 0.00 56 1018.8
20260505161702 25 262 0.0 8.0 0.00 0.00 0.00 56 1018.8
20260505161602 25 35 3.2 8.0 0.00 0.00 0.00 56 1018.8
20260505161502 25 183 0.0 4.8 0.00 0.00 0.00 56 1018.9
20260505161302 25 108 3.2 4.8 0.00 0.00 0.00 55 1018.8
20260505161102 25 193 0.0 4.8 0.00 0.00 0.00 56 1018.9
20260505161002 25 233 0.0 4.8 0.00 0.00 0.00 56 1018.9
20260505160802 25 320 0.0 6.4 0.00 0.00 0.00 56 1018.9
20260505160702 25 246 0.0 6.4 0.00 0.00 0.00 57 1019.0
20260505160602 24 86 1.6 6.4 0.00 0.00 0.00 57 1019.0
20260505160503 24 68 0.0 6.4 0.00 0.00 0.00 57 1018.9
20260505160302 24 51 3.2 6.4 0.00 0.00 0.00 56 1019.0
20260505160202 24 89 0.0 8.0 0.00 0.00 0.00 57 1019.0
20260505153302 24 137 1.6 6.4 0.00 0.00 0.00 57 1018.9
20260505153202 24 238 0.0 6.4 0.00 0.00 0.00 56 1018.8
20260505153102 25 246 0.0 6.4 0.00 0.00 0.00 56 1018.9
20260505153002 25 56 3.2 6.4 0.00 0.00 0.00 56 1018.9
20260505152902 25 246 1.6 4.8 0.00 0.00 0.00 57 1018.9
20260505152809 25 217 0.0 6.4 0.00 0.00 0.00 58 1018.8
20260505152503 25 63 0.0 6.4 0.00 0.00 0.00 57 1018.9
20260505152403 25 18 0.0 6.4 0.00 0.00 0.00 58 1018.9
20260505152304 25 84 1.6 6.4 0.00 0.00 0.00 57 1018.8
20260505152202 25 281 0.0 6.4 0.00 0.00 0.00 56 1018.9
20260505152102 25 153 0.0 6.4 0.00 0.00 0.00 55 1018.9
20260505151902 25 222 6.4 6.4 0.00 0.00 0.00 57 1018.9
20260505151802 25 241 0.0 4.8 0.00 0.00 0.00 58 1018.8
20260505151702 25 219 0.0 4.8 0.00 0.00 0.00 56 1018.8
20260505151602 25 77 0.0 4.8 0.00 0.00 0.00 58 1018.8
20260505151402 24 130 0.0 4.8 0.00 0.00 0.00 59 1018.8
20260505151302 24 172 1.6 4.8 0.00 0.00 0.00 57 1018.9
20260505151202 24 84 0.0 4.8 0.00 0.00 0.00 58 1018.9
20260505151102 24 214 0.0 4.8 0.00 0.00 0.00 58 1018.8
20260505151002 24 251 3.2 3.2 0.00 0.00 0.00 58 1018.8
20260505150804 24 109 0.0 4.8 0.00 0.00 0.00 60 1018.8
20260505150702 24 221 0.0 4.8 0.00 0.00 0.00 61 1018.8
20260505150602 23 189 0.0 4.8 0.00 0.00 0.00 61 1018.8
20260505150502 23 352 0.0 11.3 0.00 0.00 0.00 59 1018.7
20260505150402 23 89 0.0 11.3 0.00 0.00 0.00 61 1018.8
20260505150302 23 94 0.0 11.3 0.00 0.00 0.00 59 1018.8
20260505150202 23 234 0.0 11.3 0.00 0.00 0.00 59 1018.7
20260505140604 23 72 0.0 8.0 0.00 0.00 0.00 61 1018.6
20260505140502 23 210 0.0 8.0 0.00 0.00 0.00 61 1018.8
20260505130302 22 197 1.6 3.2 0.00 0.00 0.00 67 1018.5
20260505130202 21 122 0.0 4.8 0.00 0.00 0.00 67 1018.5
20260505125002 21 58 0.0 6.4 0.00 0.00 0.00 69 1018.5
20260505124902 21 95 0.0 6.4 0.00 0.00 0.00 70 1018.6
20260505124802 21 91 0.0 6.4 0.00 0.00 0.00 69 1018.6
20260505124602 21 148 0.0 3.2 0.00 0.00 0.00 71 1018.5
20260505124502 21 65 0.0 3.2 0.00 0.00 0.00 73 1018.5
20260505124402 21 129 0.0 3.2 0.00 0.00 0.00 74 1018.5
20260505124302 21 129 0.0 3.2 0.00 0.00 0.00 74 1018.6
20260505124202 21 129 0.0 3.2 0.00 0.00 0.00 74 1018.5
20260505124102 21 129 0.0 3.2 0.00 0.00 0.00 74 1018.4
20260505123705 21 122 1.6 3.2 0.00 0.00 0.00 74 1018.4
20260505123502 21 101 0.0 9.7 0.00 0.00 0.00 74 1018.4
20260505123402 21 101 0.0 9.7 0.00 0.00 0.00 75 1018.4
20260505123302 20 101 0.0 9.7 0.00 0.00 0.00 75 1018.4
20260505123202 20 84 0.0 9.7 0.00 0.00 0.00 76 1018.4
20260505123102 20 198 0.0 9.7 0.00 0.00 0.00 76 1018.4
20260505123002 20 185 0.0 9.7 0.00 0.00 0.00 76 1018.4
20260505122902 20 185 0.0 9.7 0.00 0.00 0.00 76 1018.3
20260505122805 20 148 0.0 9.7 0.00 0.00 0.00 77 1018.3
20260505122502 20 131 0.0 3.2 0.00 0.00 0.00 80 1018.3
20260505122404 20 131 0.0 3.2 0.00 0.00 0.00 80 1018.3
20260505122305 20 131 0.0 3.2 0.00 0.00 0.00 81 1018.3
20260505122202 19 131 0.0 3.2 0.00 0.00 0.00 82 1018.3
20260505122103 19 131 0.0 3.2 0.00 0.00 0.00 82 1018.4
20260505122002 19 143 0.0 3.2 0.00 0.00 0.00 83 1018.3
20260505121902 19 108 0.0 3.2 0.00 0.00 0.00 83 1018.4
20260505121802 18 108 0.0 3.2 0.00 0.00 0.00 84 1018.4
20260505121702 18 115 0.0 1.6 0.00 0.00 0.00 85 1018.4
20260505121602 18 92 0.0 1.6 0.00 0.00 0.00 87 1018.3
20260505121502 18 105 0.0 1.6 0.00 0.00 0.00 87 1018.5
20260505121402 18 105 0.0 1.6 0.00 0.00 0.00 88 1018.3
20260505121302 18 105 0.0 1.6 0.00 0.00 0.00 89 1018.4
20260505121202 17 111 0.0 1.6 0.00 0.00 0.00 89 1018.4
20260505121102 17 111 0.0 1.6 0.00 0.00 0.00 90 1018.4
20260505121002 17 101 0.0 1.6 0.00 0.00 0.00 91 1018.4
20260505120902 17 101 0.0 1.6 0.00 0.00 0.00 91 1018.5
20260505120802 17 101 0.0 1.6 0.00 0.00 0.00 91 1018.4
20260505120702 17 101 0.0 1.6 0.00 0.00 0.00 91 1018.4
20260505120602 17 101 0.0 1.6 0.00 0.00 0.00 92 1018.4
20260505120502 17 101 0.0 1.6 0.00 0.00 0.00 92 1018.4
20260505120402 17 101 0.0 1.6 0.00 0.00 0.00 92 1018.4
20260505120202 16 98 0.0 0.0 0.00 0.00 0.00 93 1018.4
20260505120005 16 98 0.0 0.0 0.00 0.00 0.00 93 1018.4
20260505115902 16 98 0.0 0.0 0.00 0.00 0.00 93 1018.4
20260505115802 16 98 0.0 0.0 0.00 0.00 0.00 93 1018.4
20260505115602 16 98 0.0 0.0 0.00 0.00 0.00 94 1018.3
20260505115502 16 98 0.0 0.0 0.00 0.00 0.00 94 1018.4
20260505115402 16 98 0.0 0.0 0.00 0.00 0.00 94 1018.4
20260505115304 16 98 0.0 0.0 0.00 0.00 0.00 94 1018.4
20260505115202 15 98 0.0 0.0 0.00 0.00 0.00 94 1018.5
20260505115102 15 98 0.0 0.0 0.00 0.00 0.00 94 1018.3
20260505115002 15 98 0.0 0.0 0.00 0.00 0.00 94 1018.4
20260505114902 15 98 0.0 0.0 0.00 0.00 0.00 94 1018.3
20260505114704 15 98 0.0 0.0 0.00 0.00 0.00 94 1018.4
20260505114502 15 98 0.0 0.0 0.00 0.00 0.00 94 1018.2
20260505114402 15 98 0.0 0.0 0.00 0.00 0.00 94 1018.3
20260505114202 15 98 0.0 0.0 0.00 0.00 0.00 94 1018.3
20260505114102 15 98 0.0 0.0 0.00 0.00 0.00 93 1018.3
20260505114002 15 98 0.0 0.0 0.00 0.00 0.00 93 1018.2
20260505113902 15 98 0.0 0.0 0.00 0.00 0.00 93 1018.2
20260505113802 15 98 0.0 0.0 0.00 0.00 0.00 93 1018.2
20260505113702 14 98 0.0 0.0 0.00 0.00 0.00 93 1018.2
20260505113602 14 98 0.0 0.0 0.00 0.00 0.00 93 1018.2
20260505113502 14 98 0.0 0.0 0.00 0.00 0.00 93 1018.2
20260505113402 14 98 0.0 0.0 0.00 0.00 0.00 93 1018.1
20260505113302 14 98 0.0 0.0 0.00 0.00 0.00 93 1018.2
20260505113202 14 98 0.0 0.0 0.00 0.00 0.00 93 1018.2
20260505113102 14 98 0.0 0.0 0.00 0.00 0.00 93 1018.1
20260505113003 14 98 0.0 0.0 0.00 0.00 0.00 93 1018.1
20260505112902 13 98 0.0 0.0 0.00 0.00 0.00 93 1018.1
20260505112602 13 98 0.0 0.0 0.00 0.00 0.00 93 1018.0
20260505112502 13 98 0.0 0.0 0.00 0.00 0.00 93 1018.0
20260505112402 13 98 0.0 0.0 0.00 0.00 0.00 93 1018.0
20260505112305 13 98 0.0 0.0 0.00 0.00 0.00 93 1018.0
20260505112102 13 98 0.0 0.0 0.00 0.00 0.00 93 1018.0
20260505112002 13 98 0.0 0.0 0.00 0.00 0.00 93 1018.0
20260505111905 13 98 0.0 0.0 0.00 0.00 0.00 93 1017.9
20260505111802 13 98 0.0 0.0 0.00 0.00 0.00 93 1017.9
20260505111703 13 98 0.0 0.0 0.00 0.00 0.00 93 1017.9
20260505111502 13 98 0.0 0.0 0.00 0.00 0.00 93 1017.8
20260505111402 13 98 0.0 0.0 0.00 0.00 0.00 93 1017.8
20260505111302 13 98 0.0 0.0 0.00 0.00 0.00 93 1017.8
20260505111102 13 98 0.0 0.0 0.00 0.00 0.00 93 1017.8
20260505111002 13 98 0.0 0.0 0.00 0.00 0.00 93 1017.7
20260505110902 13 98 0.0 0.0 0.00 0.00 0.00 93 1017.8
20260505110802 13 98 0.0 0.0 0.00 0.00 0.00 93 1017.7
20260505110702 13 98 0.0 0.0 0.00 0.00 0.00 93 1017.7
20260505110602 13 98 0.0 0.0 0.00 0.00 0.00 93 1017.6
20260505110402 13 98 0.0 0.0 0.00 0.00 0.00 93 1017.6
20260505110302 13 98 0.0 0.0 0.00 0.00 0.00 93 1017.6
20260505102202 13 98 0.0 0.0 0.00 0.00 0.00 92 1017.0
20260505102102 13 98 0.0 0.0 0.00 0.00 0.00 92 1016.9
20260505102002 13 98 0.0 0.0 0.00 0.00 0.00 92 1016.9
20260505101902 13 98 0.0 0.0 0.00 0.00 0.00 92 1016.9
20260505101802 13 98 0.0 0.0 0.00 0.00 0.00 92 1016.9
20260505101702 13 98 0.0 0.0 0.00 0.00 0.00 92 1017.0
20260505101602 13 98 0.0 0.0 0.00 0.00 0.00 92 1017.0
20260505101502 13 98 0.0 0.0 0.00 0.00 0.00 92 1016.9
20260505101403 13 98 0.0 0.0 0.00 0.00 0.00 92 1016.8
20260505101302 13 98 0.0 0.0 0.00 0.00 0.00 92 1016.9
20260505101002 13 98 0.0 0.0 0.00 0.00 0.00 92 1016.8
20260505100902 13 98 0.0 0.0 0.00 0.00 0.00 92 1016.8
20260505100802 13 98 0.0 0.0 0.00 0.00 0.00 92 1016.9
20260505100702 13 98 0.0 0.0 0.00 0.00 0.00 92 1016.7
20260505100602 13 98 0.0 0.0 0.00 0.00 0.00 92 1016.8
20260505100502 13 98 0.0 0.0 0.00 0.00 0.00 92 1016.8
20260505100402 13 98 0.0 0.0 0.00 0.00 0.00 91 1016.9
20260505100302 13 98 0.0 0.0 0.00 0.00 0.00 91 1016.8
20260505100202 13 98 0.0 0.0 0.00 0.00 0.00 91 1016.9
20260505095902 13 98 0.0 0.0 0.00 0.00 0.00 91 1016.9
20260505095702 13 98 0.0 0.0 0.00 0.00 0.00 91 1016.8
20260505095602 13 98 0.0 0.0 0.00 0.00 0.00 91 1016.8
20260505095502 13 98 0.0 0.0 0.00 0.00 0.00 91 1016.9
20260505095402 13 98 0.0 0.0 0.00 0.00 0.00 91 1016.8
20260505095304 13 98 0.0 0.0 0.00 0.00 0.00 91 1016.8
20260505095202 13 98 0.0 0.0 0.00 0.00 0.00 91 1016.9
20260505095102 13 98 0.0 0.0 0.00 0.00 0.00 91 1016.8
20260505095002 13 98 0.0 0.0 0.00 0.00 0.00 91 1016.8
20260505094902 13 98 0.0 0.0 0.00 0.00 0.00 91 1016.8
20260505094802 13 98 0.0 0.0 0.00 0.00 0.00 91 1016.7
20260505094602 13 98 0.0 0.0 0.00 0.00 0.00 91 1016.8
20260505094504 13 98 0.0 0.0 0.00 0.00 0.00 91 1016.7
20260505094402 13 98 0.0 0.0 0.00 0.00 0.00 91 1016.7
20260505094302 13 98 0.0 0.0 0.00 0.00 0.00 91 1016.7
20260505094202 13 98 0.0 0.0 0.00 0.00 0.00 91 1016.8
20260505094102 13 98 0.0 0.0 0.00 0.00 0.00 91 1016.7
20260505094002 13 98 0.0 0.0 0.00 0.00 0.00 91 1016.7
20260505093902 13 98 0.0 0.0 0.00 0.00 0.00 91 1016.8
20260505093702 13 98 0.0 0.0 0.00 0.00 0.00 91 1016.7
20260505093602 13 98 0.0 0.0 0.00 0.00 0.00 91 1016.7
20260505093502 13 98 0.0 0.0 0.00 0.00 0.00 91 1016.7
20260505093402 13 98 0.0 0.0 0.00 0.00 0.00 91 1016.7
20260505093304 13 98 0.0 0.0 0.00 0.00 0.00 91 1016.8
20260505093202 13 98 0.0 0.0 0.00 0.00 0.00 91 1016.7
20260505093102 13 98 0.0 0.0 0.00 0.00 0.00 91 1016.7
20260505093002 14 98 0.0 0.0 0.00 0.00 0.00 91 1016.7
20260505092905 14 98 0.0 0.0 0.00 0.00 0.00 91 1016.7
20260505092802 14 98 0.0 0.0 0.00 0.00 0.00 91 1016.7
20260505092702 14 98 0.0 0.0 0.00 0.00 0.00 91 1016.7
20260505092502 14 98 0.0 0.0 0.00 0.00 0.00 90 1016.6
20260505092402 14 98 0.0 0.0 0.00 0.00 0.00 90 1016.6
20260505092304 14 98 0.0 0.0 0.00 0.00 0.00 90 1016.7
20260505092102 14 98 0.0 0.0 0.00 0.00 0.00 90 1016.6
20260505091902 14 98 0.0 0.0 0.00 0.00 0.00 90 1016.5
20260505091702 14 98 0.0 0.0 0.00 0.00 0.00 90 1016.4
20260505091502 14 98 0.0 0.0 0.00 0.00 0.00 90 1016.5
20260505091402 14 98 0.0 0.0 0.00 0.00 0.00 90 1016.5
20260505091302 14 98 0.0 0.0 0.00 0.00 0.00 90 1016.4
20260505091202 14 98 0.0 0.0 0.00 0.00 0.00 90 1016.5
20260505091102 14 98 0.0 0.0 0.00 0.00 0.00 90 1016.5
20260505091002 14 98 0.0 0.0 0.00 0.00 0.00 90 1016.5
20260505090902 14 98 0.0 0.0 0.00 0.00 0.00 90 1016.5
20260505090802 14 98 0.0 0.0 0.00 0.00 0.00 90 1016.4
20260505090702 14 98 0.0 0.0 0.00 0.00 0.00 89 1016.5
20260505090502 14 98 0.0 0.0 0.00 0.00 0.00 89 1016.4
20260505090402 14 98 0.0 0.0 0.00 0.00 0.00 89 1016.5
20260505090202 14 98 0.0 0.0 0.00 0.00 0.00 89 1016.4
20260505085902 14 98 0.0 0.0 0.00 0.00 0.00 89 1016.4
20260505085802 14 98 0.0 0.0 0.00 0.00 0.00 89 1016.5
20260505085602 14 98 0.0 0.0 0.00 0.00 0.00 89 1016.5
20260505085502 14 98 0.0 0.0 0.00 0.00 0.00 89 1016.4
20260505085402 14 98 0.0 0.0 0.00 0.00 0.00 88 1016.4
20260505085202 14 98 0.0 0.0 0.00 0.00 0.00 88 1016.5
20260505084802 15 98 0.0 0.0 0.00 0.00 0.00 88 1016.4
20260505084702 15 98 0.0 0.0 0.00 0.00 0.00 88 1016.4
20260505084602 15 98 0.0 0.0 0.00 0.00 0.00 88 1016.4
20260505084502 15 98 0.0 0.0 0.00 0.00 0.00 88 1016.5
20260505084402 15 98 0.0 0.0 0.00 0.00 0.00 88 1016.4
20260505084302 15 98 0.0 0.0 0.00 0.00 0.00 88 1016.3
20260505084202 15 98 0.0 0.0 0.00 0.00 0.00 88 1016.4
20260505084102 15 98 0.0 0.0 0.00 0.00 0.00 88 1016.4
20260505084002 15 98 0.0 0.0 0.00 0.00 0.00 87 1016.4
20260505083902 15 98 0.0 0.0 0.00 0.00 0.00 87 1016.4
20260505083702 15 98 0.0 0.0 0.00 0.00 0.00 87 1016.4
20260505083506 15 98 0.0 0.0 0.00 0.00 0.00 87 1016.4
20260505083302 15 98 0.0 0.0 0.00 0.00 0.00 86 1016.4
20260505083102 15 98 0.0 0.0 0.00 0.00 0.00 86 1016.4
20260505083002 15 98 0.0 0.0 0.00 0.00 0.00 86 1016.4
20260505082902 15 98 0.0 0.0 0.00 0.00 0.00 86 1016.4
20260505082802 15 98 0.0 0.0 0.00 0.00 0.00 86 1016.4
20260505082702 15 98 0.0 0.0 0.00 0.00 0.00 86 1016.4
20260505082605 15 98 0.0 0.0 0.00 0.00 0.00 86 1016.4
20260505082502 15 98 0.0 0.0 0.00 0.00 0.00 85 1016.3
20260505082402 15 98 0.0 0.0 0.00 0.00 0.00 85 1016.4
20260505082202 15 98 0.0 0.0 0.00 0.00 0.00 85 1016.3
20260505082002 15 98 0.0 0.0 0.00 0.00 0.00 85 1016.3
20260505081902 15 98 0.0 0.0 0.00 0.00 0.00 84 1016.4
20260505081802 16 98 0.0 0.0 0.00 0.00 0.00 84 1016.4
20260505081702 16 98 0.0 0.0 0.00 0.00 0.00 84 1016.4
20260505081602 16 98 0.0 0.0 0.00 0.00 0.00 84 1016.4
20260505081502 16 98 0.0 0.0 0.00 0.00 0.00 84 1016.3
20260505081402 16 98 0.0 0.0 0.00 0.00 0.00 84 1016.4
20260505081302 16 98 0.0 0.0 0.00 0.00 0.00 83 1016.3
20260505081202 16 98 0.0 0.0 0.00 0.00 0.00 83 1016.3
20260505081102 16 98 0.0 0.0 0.00 0.00 0.00 83 1016.3
20260505081002 16 98 0.0 1.6 0.00 0.00 0.00 83 1016.3
20260505080902 16 98 0.0 1.6 0.00 0.00 0.00 83 1016.3
20260505080802 16 98 0.0 1.6 0.00 0.00 0.00 82 1016.3
20260505080502 16 98 0.0 1.6 0.00 0.00 0.00 82 1016.2
20260505080302 17 98 0.0 1.6 0.00 0.00 0.00 82 1016.3
20260505080202 17 98 0.0 1.6 0.00 0.00 0.00 81 1016.4
20260505080004 17 100 0.0 1.6 0.00 0.00 0.00 82 1016.4
20260505075902 17 101 0.0 1.6 0.00 0.00 0.00 82 1016.3
20260505075802 17 101 0.0 1.6 0.00 0.00 0.00 82 1016.4
20260505075602 17 101 0.0 1.6 0.00 0.00 0.00 82 1016.2
20260505075502 17 101 0.0 3.2 0.00 0.00 0.00 82 1016.3
20260505075402 17 101 0.0 3.2 0.00 0.00 0.00 82 1016.3
20260505075304 17 102 0.0 3.2 0.00 0.00 0.00 82 1016.3
20260505075202 17 102 0.0 3.2 0.00 0.00 0.00 82 1016.3
20260505075102 17 158 0.0 3.2 0.00 0.00 0.00 82 1016.3
20260505075002 17 158 0.0 3.2 0.00 0.00 0.00 82 1016.3
20260505074902 17 158 0.0 3.2 0.00 0.00 0.00 82 1016.3
20260505074802 17 158 0.0 3.2 0.00 0.00 0.00 82 1016.3
20260505074602 17 97 0.0 1.6 0.00 0.00 0.00 81 1016.3
20260505074502 17 148 0.0 1.6 0.00 0.00 0.00 81 1016.3
20260505074302 17 150 0.0 1.6 0.00 0.00 0.00 81 1016.2
20260505074102 17 159 0.0 1.6 0.00 0.00 0.00 80 1016.3
20260505074004 17 159 0.0 1.6 0.00 0.00 0.00 80 1016.3
20260505073902 17 159 0.0 1.6 0.00 0.00 0.00 80 1016.3
20260505073802 17 159 0.0 1.6 0.00 0.00 0.00 80 1016.3
20260505073702 17 160 0.0 1.6 0.00 0.00 0.00 80 1016.3
20260505073602 17 155 0.0 1.6 0.00 0.00 0.00 80 1016.3
20260505073402 17 162 0.0 3.2 0.00 0.00 0.00 80 1016.3
20260505073305 17 155 0.0 3.2 0.00 0.00 0.00 79 1016.3
20260505073203 17 117 0.0 3.2 0.00 0.00 0.00 79 1016.3
20260505073102 17 113 0.0 3.2 0.00 0.00 0.00 79 1016.3
20260505073002 17 113 0.0 3.2 0.00 0.00 0.00 79 1016.3
20260505072802 17 157 0.0 3.2 0.00 0.00 0.00 79 1016.4
20260505072702 17 141 0.0 3.2 0.00 0.00 0.00 79 1016.3
20260505072602 17 141 0.0 3.2 0.00 0.00 0.00 79 1016.3
20260505072502 17 102 0.0 1.6 0.00 0.00 0.00 79 1016.4
20260505072402 17 160 0.0 1.6 0.00 0.00 0.00 79 1016.3
20260505072304 17 143 0.0 1.6 0.00 0.00 0.00 79 1016.4
20260505072202 17 140 0.0 1.6 0.00 0.00 0.00 79 1016.3
20260505072102 17 97 0.0 1.6 0.00 0.00 0.00 79 1016.4
20260505072002 17 161 0.0 1.6 0.00 0.00 0.00 79 1016.3
20260505071802 17 122 0.0 1.6 0.00 0.00 0.00 79 1016.4
20260505071702 17 165 0.0 1.6 0.00 0.00 0.00 79 1016.5
20260505071602 17 163 0.0 1.6 0.00 0.00 0.00 79 1016.4
20260505071502 17 163 0.0 1.6 0.00 0.00 0.00 79 1016.4
20260505071402 17 138 0.0 1.6 0.00 0.00 0.00 79 1016.4
20260505071302 17 134 0.0 1.6 0.00 0.00 0.00 79 1016.4
20260505071202 17 115 0.0 1.6 0.00 0.00 0.00 79 1016.4
20260505071103 17 115 0.0 1.6 0.00 0.00 0.00 79 1016.4
20260505071002 17 115 0.0 1.6 0.00 0.00 0.00 79 1016.4
20260505070902 17 113 0.0 1.6 0.00 0.00 0.00 79 1016.4
20260505070802 17 112 0.0 1.6 0.00 0.00 0.00 79 1016.4
20260505070702 17 112 0.0 1.6 0.00 0.00 0.00 79 1016.3
20260505070602 17 142 0.0 1.6 0.00 0.00 0.00 79 1016.4
20260505070502 17 104 0.0 1.6 0.00 0.00 0.00 80 1016.3
20260505070402 17 158 0.0 1.6 0.00 0.00 0.00 79 1016.4
20260505070302 17 51 0.0 1.6 0.00 0.00 0.00 80 1016.4
20260505070202 17 145 0.0 1.6 0.00 0.00 0.00 79 1016.4
20260505070005 17 122 0.0 1.6 0.00 0.00 0.00 79 1016.3
20260505065902 17 120 0.0 3.2 0.00 0.00 0.00 79 1016.4
20260505065802 17 133 0.0 3.2 0.00 0.00 0.00 79 1016.4
20260505065702 17 133 0.0 3.2 0.00 0.00 0.00 79 1016.4
20260505065602 17 133 0.0 3.2 0.00 0.00 0.00 79 1016.4
20260505065502 17 122 0.0 3.2 0.00 0.00 0.00 79 1016.4
20260505065402 17 151 0.0 3.2 0.00 0.00 0.00 79 1016.4
20260505065303 17 141 0.0 3.2 0.00 0.00 0.00 79 1016.4
20260505065102 17 148 0.0 3.2 0.00 0.00 0.00 79 1016.4
20260505065002 18 120 0.0 1.6 0.00 0.00 0.00 78 1016.4
20260505064905 18 120 0.0 1.6 0.00 0.00 0.00 78 1016.4
20260505064802 18 120 0.0 1.6 0.00 0.00 0.00 78 1016.3
20260505064702 18 122 0.0 3.2 0.00 0.00 0.00 78 1016.3
20260505064602 18 122 0.0 3.2 0.00 0.00 0.00 78 1016.3
20260505064502 18 118 0.0 3.2 0.00 0.00 0.00 77 1016.3
20260505064302 18 137 0.0 3.2 0.00 0.00 0.00 77 1016.4
20260505064202 18 130 0.0 3.2 0.00 0.00 0.00 77 1016.4
20260505064102 18 112 0.0 3.2 0.00 0.00 0.00 77 1016.5
20260505064002 18 129 1.6 3.2 0.00 0.00 0.00 77 1016.5
20260505063903 18 106 0.0 1.6 0.00 0.00 0.00 77 1016.4
20260505063802 18 103 0.0 1.6 0.00 0.00 0.00 77 1016.5
20260505063702 18 81 1.6 1.6 0.00 0.00 0.00 77 1016.4
20260505063603 18 136 0.0 1.6 0.00 0.00 0.00 77 1016.5
20260505063502 18 136 0.0 1.6 0.00 0.00 0.00 77 1016.5
20260505063402 18 135 0.0 1.6 0.00 0.00 0.00 77 1016.6
20260505063306 18 135 0.0 1.6 0.00 0.00 0.00 77 1016.6
20260505063102 18 102 0.0 1.6 0.00 0.00 0.00 77 1016.6
20260505063002 18 101 0.0 1.6 0.00 0.00 0.00 77 1016.6
20260505062902 18 111 0.0 1.6 0.00 0.00 0.00 77 1016.6
20260505062802 18 132 1.6 1.6 0.00 0.00 0.00 77 1016.6
20260505062502 18 115 0.0 6.4 0.00 0.00 0.00 76 1016.6
20260505062304 18 114 0.0 6.4 0.00 0.00 0.00 76 1016.6
20260505062202 18 134 1.6 6.4 0.00 0.00 0.00 76 1016.6
20260505062102 18 98 0.0 6.4 0.00 0.00 0.00 76 1016.7
20260505062002 18 131 0.0 6.4 0.00 0.00 0.00 76 1016.7
20260505061902 18 131 0.0 6.4 0.00 0.00 0.00 76 1016.7
20260505061802 18 133 0.0 6.4 0.00 0.00 0.00 76 1016.8
20260505061702 18 139 0.0 1.6 0.00 0.00 0.00 76 1016.8
20260505061602 18 129 0.0 1.6 0.00 0.00 0.00 76 1016.7
20260505061502 18 127 0.0 1.6 0.00 0.00 0.00 76 1016.7
20260505061402 18 171 0.0 1.6 0.00 0.00 0.00 76 1016.8
20260505061202 18 106 0.0 4.8 0.00 0.00 0.00 76 1016.8
20260505061102 18 96 0.0 6.4 0.00 0.00 0.00 76 1016.7
20260505061002 18 165 0.0 6.4 0.00 0.00 0.00 76 1016.8
20260505060902 18 144 0.0 6.4 0.00 0.00 0.00 76 1016.9
20260505060802 18 129 0.0 6.4 0.00 0.00 0.00 76 1016.9
20260505060702 18 130 0.0 6.4 0.00 0.00 0.00 76 1016.8
20260505060602 18 117 1.6 6.4 0.00 0.00 0.00 76 1016.8
20260505060502 18 117 0.0 6.4 0.00 0.00 0.00 76 1016.9
20260505060402 18 144 1.6 6.4 0.00 0.00 0.00 76 1016.9
20260505060302 18 103 0.0 6.4 0.00 0.00 0.00 76 1016.9
20260505060202 18 158 0.0 3.2 0.00 0.00 0.00 76 1016.9
20260505060005 18 79 0.0 3.2 0.00 0.00 0.00 76 1017.0
20260505055902 18 134 0.0 3.2 0.00 0.00 0.00 76 1017.0
20260505055802 18 122 0.0 3.2 0.00 0.00 0.00 75 1017.0
20260505055702 18 168 0.0 3.2 0.00 0.00 0.00 75 1017.0
20260505055602 18 169 0.0 3.2 0.00 0.00 0.00 75 1017.0
20260505055402 18 160 0.0 3.2 0.00 0.00 0.00 75 1017.0
20260505055303 18 160 0.0 3.2 0.00 0.00 0.00 75 1017.0
20260505055202 18 125 0.0 3.2 0.00 0.00 0.00 75 1017.0
20260505055002 18 112 0.0 3.2 0.00 0.00 0.00 75 1017.1
20260505054702 18 137 0.0 3.2 0.00 0.00 0.00 75 1017.0
20260505054602 18 136 0.0 3.2 0.00 0.00 0.00 75 1017.0
20260505054502 18 68 0.0 3.2 0.00 0.00 0.00 75 1017.1
20260505054402 18 68 0.0 3.2 0.00 0.00 0.00 74 1017.1
20260505054302 18 134 0.0 3.2 0.00 0.00 0.00 74 1017.1
20260505054202 18 130 1.6 3.2 0.00 0.00 0.00 74 1017.1
20260505054102 18 50 0.0 3.2 0.00 0.00 0.00 74 1017.0
20260505054002 18 132 0.0 3.2 0.00 0.00 0.00 74 1017.2
20260505053902 18 112 0.0 3.2 0.00 0.00 0.00 74 1017.1
20260505053804 18 156 0.0 3.2 0.00 0.00 0.00 74 1017.1
20260505053702 18 159 0.0 3.2 0.00 0.00 0.00 74 1017.2
20260505053602 18 156 3.2 3.2 0.00 0.00 0.00 74 1017.3
20260505053502 18 131 0.0 6.4 0.00 0.00 0.00 74 1017.2
20260505053402 18 148 0.0 6.4 0.00 0.00 0.00 74 1017.2
20260505053302 18 91 0.0 6.4 0.00 0.00 0.00 74 1017.3
20260505053102 18 141 0.0 6.4 0.00 0.00 0.00 74 1017.2
20260505053002 18 132 0.0 6.4 0.00 0.00 0.00 74 1017.3
20260505052902 18 140 0.0 6.4 0.00 0.00 0.00 74 1017.3
20260505052802 18 141 0.0 6.4 0.00 0.00 0.00 74 1017.2
20260505052702 18 111 0.0 6.4 0.00 0.00 0.00 74 1017.2
20260505052602 18 116 0.0 3.2 0.00 0.00 0.00 74 1017.2
20260505052502 18 116 0.0 3.2 0.00 0.00 0.00 75 1017.3
20260505052402 18 167 0.0 3.2 0.00 0.00 0.00 74 1017.3
20260505052102 18 153 1.6 4.8 0.00 0.00 0.00 74 1017.4
20260505051802 18 126 0.0 4.8 0.00 0.00 0.00 74 1017.4
20260505051702 18 128 0.0 4.8 0.00 0.00 0.00 74 1017.4
20260505051502 18 75 0.0 4.8 0.00 0.00 0.00 74 1017.4
20260505051402 18 148 0.0 4.8 0.00 0.00 0.00 74 1017.4
20260505051302 18 148 0.0 4.8 0.00 0.00 0.00 74 1017.4
20260505051202 18 120 0.0 4.8 0.00 0.00 0.00 73 1017.4
20260505051102 18 136 0.0 4.8 0.00 0.00 0.00 73 1017.4
20260505051002 18 111 0.0 4.8 0.00 0.00 0.00 73 1017.4
20260505050902 18 129 1.6 4.8 0.00 0.00 0.00 73 1017.5
20260505050802 18 122 1.6 4.8 0.00 0.00 0.00 73 1017.5
20260505050702 18 133 0.0 4.8 0.00 0.00 0.00 73 1017.5
20260505050602 18 141 0.0 4.8 0.00 0.00 0.00 73 1017.4
20260505050502 18 124 0.0 4.8 0.00 0.00 0.00 73 1017.5
20260505050402 18 160 0.0 4.8 0.00 0.00 0.00 73 1017.5
20260505050302 18 122 0.0 3.2 0.00 0.00 0.00 74 1017.5
20260505041703 18 148 0.0 8.0 0.00 0.00 0.00 73 1017.5
20260505041603 18 148 0.0 8.0 0.00 0.00 0.00 73 1017.4
20260505041403 18 122 3.2 4.8 0.00 0.00 0.00 73 1017.5
20260505041204 18 126 0.0 4.8 0.00 0.00 0.00 73 1017.4
20260505041104 18 126 0.0 4.8 0.00 0.00 0.00 73 1017.4
20260505041004 18 138 1.6 4.8 0.00 0.00 0.00 73 1017.5
20260505040703 18 129 0.0 4.8 0.00 0.00 0.00 73 1017.4
20260505040603 18 138 0.0 4.8 0.00 0.00 0.00 73 1017.4
20260505040503 18 72 3.2 4.8 0.00 0.00 0.00 73 1017.4
20260505040403 18 145 0.0 3.2 0.00 0.00 0.00 73 1017.5
20260505040303 18 145 0.0 3.2 0.00 0.00 0.00 73 1017.5
20260505040203 18 149 0.0 3.2 0.00 0.00 0.00 73 1017.5
20260505040103 18 149 0.0 3.2 0.00 0.00 0.00 73 1017.5
20260505040007 18 149 0.0 3.2 0.00 0.00 0.00 73 1017.4
20260505035903 18 150 0.0 3.2 0.00 0.00 0.00 73 1017.5
20260505035803 18 125 0.0 3.2 0.00 0.00 0.00 73 1017.5
20260505035603 18 139 0.0 3.2 0.00 0.00 0.00 72 1017.4
20260505035503 18 139 0.0 3.2 0.00 0.00 0.00 72 1017.5
20260505035403 18 127 0.0 3.2 0.00 0.00 0.00 73 1017.4
20260505035304 18 107 1.6 3.2 0.00 0.00 0.00 73 1017.5
20260505035203 18 107 0.0 3.2 0.00 0.00 0.00 73 1017.4
20260505035103 18 107 0.0 3.2 0.00 0.00 0.00 73 1017.5
20260505035003 18 80 1.6 3.2 0.00 0.00 0.00 72 1017.3
20260505034805 18 57 0.0 3.2 0.00 0.00 0.00 72 1017.4
20260505034703 18 4 0.0 3.2 0.00 0.00 0.00 72 1017.5
20260505034503 18 162 0.0 3.2 0.00 0.00 0.00 72 1017.4
20260505034303 18 113 0.0 3.2 0.00 0.00 0.00 72 1017.4
20260505034203 18 106 1.6 3.2 0.00 0.00 0.00 72 1017.4
20260505034103 18 141 0.0 4.8 0.00 0.00 0.00 72 1017.4
20260505034003 18 120 1.6 4.8 0.00 0.00 0.00 72 1017.4
20260505033903 18 95 0.0 4.8 0.00 0.00 0.00 72 1017.3
20260505033703 18 106 0.0 4.8 0.00 0.00 0.00 72 1017.3
20260505033603 18 119 0.0 4.8 0.00 0.00 0.00 72 1017.3
20260505033506 18 141 0.0 6.4 0.00 0.00 0.00 72 1017.3
20260505033403 18 181 0.0 6.4 0.00 0.00 0.00 72 1017.3
20260505033305 18 82 1.6 6.4 0.00 0.00 0.00 72 1017.3
20260505033203 18 124 0.0 6.4 0.00 0.00 0.00 72 1017.3
20260505033103 18 99 0.0 6.4 0.00 0.00 0.00 72 1017.4
20260505032904 18 167 0.0 6.4 0.00 0.00 0.00 72 1017.4
20260505032803 18 206 0.0 6.4 0.00 0.00 0.00 72 1017.4
20260505032703 18 134 1.6 1.6 0.00 0.00 0.00 72 1017.3
20260505032603 18 165 0.0 4.8 0.00 0.00 0.00 72 1017.4
20260505032503 18 165 0.0 4.8 0.00 0.00 0.00 72 1017.4
20260505032304 18 167 0.0 4.8 0.00 0.00 0.00 72 1017.4
20260505032203 18 85 0.0 4.8 0.00 0.00 0.00 72 1017.4
20260505032103 18 84 0.0 4.8 0.00 0.00 0.00 72 1017.3
20260505031903 18 108 0.0 4.8 0.00 0.00 0.00 72 1017.4
20260505031803 18 108 0.0 4.8 0.00 0.00 0.00 72 1017.4
20260505031603 18 168 0.0 4.8 0.00 0.00 0.00 73 1017.4
20260505031503 18 169 0.0 4.8 0.00 0.00 0.00 73 1017.4
20260505031403 18 38 0.0 4.8 0.00 0.00 0.00 73 1017.5
20260505031303 18 22 0.0 4.8 0.00 0.00 0.00 73 1017.4
20260505031203 18 236 1.6 4.8 0.00 0.00 0.00 73 1017.5
20260505031103 18 236 0.0 4.8 0.00 0.00 0.00 72 1017.4
20260505030903 18 118 1.6 3.2 0.00 0.00 0.00 72 1017.5
20260505030703 18 98 0.0 3.2 0.00 0.00 0.00 72 1017.5
20260505030603 18 130 0.0 3.2 0.00 0.00 0.00 72 1017.5
20260505030503 18 130 0.0 3.2 0.00 0.00 0.00 72 1017.5
20260505030403 18 160 0.0 3.2 0.00 0.00 0.00 72 1017.5
20260505030204 18 86 0.0 3.2 0.00 0.00 0.00 72 1017.6
20260505030103 18 79 0.0 3.2 0.00 0.00 0.00 72 1017.5
20260505030006 18 146 0.0 3.2 0.00 0.00 0.00 72 1017.5
20260505025803 18 74 3.2 3.2 0.00 0.00 0.00 72 1017.5
20260505025603 18 99 3.2 3.2 0.00 0.00 0.00 72 1017.4
20260505025503 18 95 1.6 3.2 0.00 0.00 0.00 72 1017.5
20260505025403 18 86 0.0 3.2 0.00 0.00 0.00 72 1017.5
20260505025304 18 164 0.0 3.2 0.00 0.00 0.00 72 1017.5